Lakeview AWS, OR

4:21 AM PDT on June 27, 2017 (GMT -0700)
Lake County

Weather History for KLKV - March, 2013

Change the Weather History Date:

Saturday, March 2, 2013

  Actual Average Record
Temperature  
Mean Temperature 38 °F -  
Max Temperature 51 °F 42 °F 66 °F (1931)
Min Temperature 26 °F 24 °F 0 °F (2012)
Degree Days  
Heating Degree Days 26    
Moisture  
Dew Point 31 °F    
Average Humidity 78    
Maximum Humidity 100    
Minimum Humidity 54    
Precipitation  
Precipitation 0.00 in - - ()
Sea Level Pressure  
Sea Level Pressure 30.21 in    
Wind  
Wind Speed 5 mph (SE)    
Max Wind Speed 13 mph    
Max Gust Speed -    
Visibility 10 miles    
Events      
Averages and records for this station are not official NWS values.
T = Trace of Precipitation, MM = Missing Value Source: NWS Daily Summary

Daily Weather History Graph

Daily Weather History Graph

Search for Another Location

Airport or City:

Trip Planner

Search our weather history database for the weather conditions in past years. The results will help you decide how hot, cold, wet, or windy it might be!

Date:

Astronomy

Mar. 02, 2013 Rise Set
Actual Time 6:34 AM PST 5:53 PM PST
Civil Twilight 6:06 AM PST 6:21 PM PST
Nautical Twilight 5:34 AM PST 6:53 PM PST
Astronomical Twilight 5:01 AM PST 7:26 PM PST
Moon 11:45 PM PST (3/2) 9:00 AM PST (3/2)
Length of Visible Light 12h 14m
Length of Day
11h 18m
Waning Gibbous, 73% of the Moon is Illuminated
Mar 2
Waning Gibbous
Mar 4
Last Quarter
Mar 11
New
Mar 19
First Quarter
Mar 27
Full

Hourly Weather History & Observations

Time (PST) Temp. Windchill Dew Point Humidity Pressure Visibility Wind Dir Wind Speed Gust Speed Precip Events Conditions
12:15 AM 28.4 °F 22.2 °F 26.6 °F 93% 30.37 in 10.0 mi North 5.8 mph - N/A   Clear
12:35 AM 26.6 °F 19.1 °F 24.8 °F 93% 30.36 in 10.0 mi North 6.9 mph - N/A   Clear
12:55 AM 26.6 °F 20.0 °F 26.6 °F 100% 30.36 in 10.0 mi NW 5.8 mph - N/A   Clear
1:15 AM 26.6 °F 20.0 °F 24.8 °F 93% 30.36 in 10.0 mi NNW 5.8 mph - N/A   Clear
1:35 AM 26.6 °F 20.0 °F 26.6 °F 100% 30.35 in 10.0 mi North 5.8 mph - N/A   Clear
1:55 AM 26.6 °F 19.1 °F 24.8 °F 93% 30.34 in 10.0 mi NW 6.9 mph - N/A   Clear
2:15 AM 26.6 °F 20.0 °F 24.8 °F 93% 30.33 in 10.0 mi NNW 5.8 mph - N/A   Clear
2:35 AM 26.6 °F 20.0 °F 24.8 °F 93% 30.33 in 10.0 mi NNW 5.8 mph - N/A   Clear
2:55 AM 26.6 °F 21.2 °F 24.8 °F 93% 30.32 in 10.0 mi North 4.6 mph - N/A   Clear
3:15 AM 26.6 °F 20.0 °F 24.8 °F 93% 30.31 in 10.0 mi NNW 5.8 mph - N/A   Clear
3:35 AM 26.6 °F 20.0 °F 24.8 °F 93% 30.30 in 10.0 mi NW 5.8 mph - N/A   Clear
3:55 AM 26.6 °F 21.2 °F 24.8 °F 93% 30.29 in 10.0 mi NW 4.6 mph - N/A   Clear
4:15 AM 26.6 °F 22.6 °F 24.8 °F 93% 30.29 in 10.0 mi NW 3.5 mph - N/A   Clear
4:35 AM 26.6 °F 22.6 °F 24.8 °F 93% 30.29 in 10.0 mi NNE 3.5 mph - N/A   Clear
4:55 AM 26.6 °F - 26.6 °F 100% 30.29 in 10.0 mi Calm Calm - N/A   Clear
5:15 AM 26.6 °F - 24.8 °F 93% 30.28 in 10.0 mi Calm Calm - N/A   Clear
5:35 AM 26.6 °F - 26.6 °F 100% 30.28 in 10.0 mi Calm Calm - N/A   Clear
5:55 AM 26.6 °F - 24.8 °F 93% 30.28 in 10.0 mi Calm Calm - N/A   Clear
6:15 AM 26.6 °F - 24.8 °F 93% 30.27 in 10.0 mi Calm Calm - N/A   Clear
6:35 AM 26.6 °F - 24.8 °F 93% 30.28 in 10.0 mi Calm Calm - N/A   Clear
6:55 AM 26.6 °F - 24.8 °F 93% 30.27 in 10.0 mi Calm Calm - N/A   Clear
7:15 AM 26.6 °F - 24.8 °F 93% 30.27 in 10.0 mi Calm Calm - N/A   Clear
7:35 AM 28.4 °F - 26.6 °F 93% 30.28 in 10.0 mi Calm Calm - N/A   Clear
7:55 AM 28.4 °F - 26.6 °F 93% 30.28 in 10.0 mi Calm Calm - N/A   Clear
8:15 AM 30.2 °F - 28.4 °F 93% 30.28 in 10.0 mi Calm Calm - N/A   Clear
8:35 AM 33.8 °F - 32.0 °F 93% 30.27 in 10.0 mi Calm Calm - N/A   Clear
8:55 AM 35.6 °F - 32.0 °F 87% 30.27 in 10.0 mi Calm Calm - N/A   Clear
9:15 AM 35.6 °F 32.8 °F 33.8 °F 93% 30.28 in 10.0 mi West 3.5 mph - N/A   Clear
9:35 AM 37.4 °F - 32.0 °F 81% 30.28 in 10.0 mi Calm Calm - N/A   Clear
9:55 AM 37.4 °F 33.8 °F 33.8 °F 87% 30.27 in 10.0 mi SE 4.6 mph - N/A   Clear
10:15 AM 41.0 °F 37.1 °F 33.8 °F 76% 30.26 in 10.0 mi SE 5.8 mph - N/A   Clear
10:35 AM 42.8 °F 38.6 °F 35.6 °F 76% 30.26 in 10.0 mi South 6.9 mph - N/A   Clear
10:55 AM 44.6 °F 40.7 °F 35.6 °F 71% 30.25 in 10.0 mi South 6.9 mph - N/A   Clear
11:15 AM 48.2 °F - 35.6 °F 62% 30.24 in 10.0 mi SSE 5.8 mph - N/A   Clear
11:35 AM 48.2 °F - 35.6 °F 62% 30.24 in 10.0 mi SSE 11.5 mph - N/A   Clear
11:55 AM 50.0 °F - 35.6 °F 58% 30.23 in 10.0 mi South 10.4 mph - N/A   Clear
12:15 PM 50.0 °F - 35.6 °F 58% 30.22 in 10.0 mi South 8.1 mph - N/A   Clear
12:35 PM 48.2 °F - 37.4 °F 66% 30.21 in 10.0 mi South 9.2 mph - N/A   Clear
12:55 PM 50.0 °F - 37.4 °F 62% 30.20 in 10.0 mi SSE 10.4 mph - N/A   Clear
1:15 PM 48.2 °F - 37.4 °F 66% 30.19 in 10.0 mi SSE 9.2 mph - N/A   Clear
1:35 PM 51.8 °F - 37.4 °F 58% 30.19 in 10.0 mi SSE 9.2 mph - N/A   Clear
1:55 PM 51.8 °F - 35.6 °F 54% 30.18 in 10.0 mi SSE 6.9 mph - N/A   Clear
2:15 PM 48.2 °F - 35.6 °F 62% 30.17 in 10.0 mi SSE 10.4 mph - N/A   Clear
2:35 PM 48.2 °F - 35.6 °F 62% 30.17 in 10.0 mi SSE 10.4 mph - N/A   Clear
2:55 PM 48.2 °F - 35.6 °F 62% 30.16 in 10.0 mi SSE 11.5 mph - N/A   Clear
3:15 PM 48.2 °F - 35.6 °F 62% 30.15 in 10.0 mi SSE 10.4 mph - N/A   Clear
3:35 PM 48.2 °F - 35.6 °F 62% 30.15 in 10.0 mi SSE 12.7 mph - N/A   Clear
3:55 PM 50.0 °F - 35.6 °F 58% 30.15 in 10.0 mi SSE 11.5 mph - N/A   Clear
4:15 PM 46.4 °F 41.9 °F 35.6 °F 66% 30.14 in 10.0 mi SE 9.2 mph - N/A   Clear
4:35 PM 46.4 °F 41.1 °F 35.6 °F 66% 30.13 in 10.0 mi SE 11.5 mph - N/A   Clear
4:55 PM 44.6 °F 38.8 °F 33.8 °F 66% 30.12 in 10.0 mi SE 11.5 mph - N/A   Clear
5:15 PM 42.8 °F 37.5 °F 33.8 °F 70% 30.12 in 10.0 mi SE 9.2 mph - N/A   Clear
5:35 PM 42.8 °F 38.0 °F 33.8 °F 70% 30.12 in 10.0 mi ESE 8.1 mph - N/A   Clear
5:55 PM 42.8 °F 39.3 °F 33.8 °F 70% 30.12 in 10.0 mi SE 5.8 mph - N/A   Clear
6:15 PM 41.0 °F 35.2 °F 30.2 °F 65% 30.12 in 10.0 mi SSE 9.2 mph - N/A   Clear
6:35 PM 42.8 °F 37.5 °F 30.2 °F 61% 30.11 in 10.0 mi SE 9.2 mph - N/A   Partly Cloudy
6:55 PM 39.2 °F 35.0 °F 30.2 °F 70% 30.11 in 10.0 mi SE 5.8 mph - N/A   Scattered Clouds
7:15 PM 41.0 °F 37.1 °F 30.2 °F 65% 30.12 in 10.0 mi SSE 5.8 mph - N/A   Mostly Cloudy
7:35 PM 41.0 °F 38.0 °F 30.2 °F 65% 30.12 in 10.0 mi SSW 4.6 mph - N/A   Mostly Cloudy
7:55 PM 42.8 °F - 32.0 °F 66% 30.11 in 10.0 mi Calm Calm - N/A   Mostly Cloudy
8:15 PM 41.0 °F 38.0 °F 32.0 °F 70% 30.11 in 10.0 mi SW 4.6 mph - N/A   Mostly Cloudy
8:35 PM 39.2 °F 37.0 °F 32.0 °F 75% 30.11 in 10.0 mi NE 3.5 mph - N/A   Scattered Clouds
8:55 PM 37.4 °F 32.8 °F 32.0 °F 81% 30.11 in 10.0 mi East 5.8 mph - N/A   Partly Cloudy
9:15 PM 37.4 °F - 30.2 °F 75% 30.11 in 10.0 mi Calm Calm - N/A   Partly Cloudy
9:35 PM 37.4 °F 33.8 °F 30.2 °F 75% 30.12 in 10.0 mi ESE 4.6 mph - N/A   Mostly Cloudy
9:55 PM 37.4 °F 33.8 °F 30.2 °F 75% 30.11 in 10.0 mi East 4.6 mph - N/A   Scattered Clouds
10:15 PM 37.4 °F 33.8 °F 30.2 °F 75% 30.11 in 10.0 mi ESE 4.6 mph - N/A   Overcast
10:35 PM 37.4 °F 34.9 °F 32.0 °F 81% 30.11 in 10.0 mi NW 3.5 mph - N/A   Overcast
10:55 PM 37.4 °F 33.8 °F 30.2 °F 75% 30.11 in 10.0 mi NNE 4.6 mph - N/A   Overcast
11:15 PM 37.4 °F 34.9 °F 32.0 °F 81% 30.11 in 10.0 mi WNW 3.5 mph - N/A   Overcast
11:35 PM 37.4 °F 34.9 °F 30.2 °F 75% 30.10 in 10.0 mi NNE 3.5 mph - N/A   Overcast
11:55 PM 37.4 °F 33.8 °F 30.2 °F 75% 30.09 in 10.0 mi NNW 4.6 mph - N/A   Overcast